TimePST,TemperatureF,Dew PointF,Humidity,Sea Level PressureIn,VisibilityMPH,Wind Direction,Wind SpeedMPH,Gust SpeedMPH,PrecipitationIn,Events,Conditions,WindDirDegrees,DateUTC
12:12 AM,24.8,24.8,100,30.51,10.0,NNW,4.6,-,N/A,,Overcast,340,2013-01-17 08:12:00
12:58 AM,25.7,25.0,97,30.54,1.5,NNW,2.3,-,N/A,,Overcast,340,2013-01-17 08:58:00
1:03 AM,24.8,24.8,100,30.51,1.5,NNW,4.6,-,N/A,,Overcast,340,2013-01-17 09:03:00
1:37 AM,24.8,23.0,93,30.50,1.5,NNW,3.5,-,N/A,,Mostly Cloudy,340,2013-01-17 09:37:00
1:52 AM,24.8,23.0,93,30.50,2.0,NNW,2.3,-,N/A,,Scattered Clouds,340,2013-01-17 09:52:00
2:03 AM,23.0,21.2,93,30.51,2.0,NNW,3.5,-,N/A,,Partly Cloudy,340,2013-01-17 10:03:00
2:23 AM,24.8,24.8,100,30.51,10.0,NNW,1.2,-,N/A,,Clear,340,2013-01-17 10:23:00
2:58 AM,23.9,22.8,96,30.53,4.0,NNW,2.3,-,N/A,,Partly Cloudy,340,2013-01-17 10:58:00
3:58 AM,22.5,21.2,95,30.49,10.0,NNW,4.6,-,N/A,,Clear,340,2013-01-17 11:58:00
4:51 AM,23.0,23.0,100,30.45,10.0,Calm,Calm,-,N/A,,Partly Cloudy,0,2013-01-17 12:51:00
4:58 AM,24.8,23.0,93,30.48,10.0,Calm,Calm,-,N/A,,Partly Cloudy,0,2013-01-17 12:58:00
5:40 AM,23.0,21.2,93,30.45,10.0,NNW,2.3,-,N/A,,Mostly Cloudy,340,2013-01-17 13:40:00
5:50 AM,23.0,23.0,100,30.45,10.0,Calm,Calm,-,N/A,,Mostly Cloudy,0,2013-01-17 13:50:00
5:58 AM,23.0,23.0,100,30.48,10.0,NNW,2.3,-,N/A,,Overcast,340,2013-01-17 13:58:00
6:00 AM,23.0,23.0,100,30.44,10.0,NNW,3.5,-,N/A,,Overcast,340,2013-01-17 14:00:00
6:20 AM,24.8,23.0,93,30.44,10.0,NNW,6.9,-,N/A,,Overcast,340,2013-01-17 14:20:00
6:32 AM,24.8,24.8,100,30.44,10.0,NNW,4.6,-,N/A,,Overcast,340,2013-01-17 14:32:00
6:58 AM,25.3,24.4,96,30.47,10.0,NNW,4.6,-,N/A,,Overcast,340,2013-01-17 14:58:00
7:14 AM,26.6,24.8,93,30.44,10.0,NNW,3.5,-,N/A,,Overcast,340,2013-01-17 15:14:00
7:39 AM,26.6,24.8,93,30.44,1.5,NNW,4.6,-,N/A,,Overcast,340,2013-01-17 15:39:00
7:58 AM,26.4,25.7,97,30.47,1.0,NNW,3.5,-,N/A,,Overcast,340,2013-01-17 15:58:00
8:05 AM,26.6,24.8,93,30.44,1.0,NNW,4.6,-,N/A,,Overcast,340,2013-01-17 16:05:00
8:41 AM,28.4,26.6,93,30.45,0.9,North,1.2,-,N/A,,Overcast,360,2013-01-17 16:41:00
8:45 AM,28.4,26.6,93,30.45,0.5,NNW,2.3,-,N/A,Fog,Light Freezing Fog,340,2013-01-17 16:45:00
8:50 AM,28.4,26.6,93,30.45,10.0,NNW,3.5,-,N/A,,Overcast,340,2013-01-17 16:50:00
8:58 AM,28.2,27.7,98,30.48,10.0,NNW,3.5,-,N/A,,Overcast,340,2013-01-17 16:58:00
9:09 AM,28.4,28.4,100,30.46,0.5,NNW,4.6,-,N/A,Fog,Light Freezing Fog,340,2013-01-17 17:09:00
9:22 AM,28.4,28.4,100,30.46,0.5,NNW,3.5,-,N/A,Fog,Light Freezing Fog,340,2013-01-17 17:22:00
9:55 AM,30.2,30.2,100,30.45,10.0,NNW,4.6,-,N/A,,Overcast,340,2013-01-17 17:55:00
9:58 AM,30.2,30.2,100,30.48,0.5,NNW,4.6,-,0.00,Fog,Fog,340,2013-01-17 17:58:00
10:58 AM,32.0,32.0,100,30.48,0.2,NNW,2.3,-,0.00,Fog,Fog,340,2013-01-17 18:58:00
11:30 AM,32.0,32.0,100,30.42,0.5,NNW,2.3,-,N/A,Fog,Fog,340,2013-01-17 19:30:00
11:58 AM,32.9,32.5,99,30.44,0.5,Calm,Calm,-,N/A,Fog,Fog,0,2013-01-17 19:58:00
12:08 PM,32.0,32.0,100,30.41,10.0,North,1.2,-,N/A,,Overcast,350,2013-01-17 20:08:00
12:25 PM,32.0,32.0,100,30.39,0.5,Calm,Calm,-,N/A,Fog,Fog,0,2013-01-17 20:25:00
12:28 PM,32.0,32.0,100,30.40,0.5,Calm,Calm,-,N/A,Fog,Fog,0,2013-01-17 20:28:00
12:38 PM,33.8,32.0,93,30.39,10.0,Calm,Calm,-,N/A,,Overcast,0,2013-01-17 20:38:00
12:58 PM,33.8,32.0,93,30.42,0.5,Calm,Calm,-,N/A,Fog,Fog,0,2013-01-17 20:58:00
1:28 PM,32.0,32.0,100,30.36,0.5,Calm,Calm,-,N/A,Fog,Fog,0,2013-01-17 21:28:00
1:50 PM,32.0,32.0,100,30.36,0.5,NNW,2.3,-,N/A,Fog,Fog,340,2013-01-17 21:50:00
1:58 PM,33.8,33.6,99,30.38,0.5,Calm,Calm,-,N/A,Fog,Fog,0,2013-01-17 21:58:00
2:58 PM,35.6,33.8,93,30.37,0.5,NNW,4.6,-,N/A,,Overcast,340,2013-01-17 22:58:00
3:24 PM,35.6,33.8,93,30.34,0.5,NNW,3.5,-,N/A,,Overcast,340,2013-01-17 23:24:00
3:36 PM,35.6,35.6,100,30.33,0.5,Calm,Calm,-,N/A,Fog,Fog,0,2013-01-17 23:36:00
3:58 PM,35.1,34.9,99,30.35,0.5,Calm,Calm,-,N/A,Fog,Fog,0,2013-01-17 23:58:00
4:49 PM,33.8,33.8,100,30.33,0.2,Calm,Calm,-,N/A,Fog,Fog,0,2013-01-18 00:49:00
4:58 PM,33.6,33.3,99,30.35,0.2,Calm,Calm,-,N/A,Fog,Fog,0,2013-01-18 00:58:00
5:58 PM,33.3,33.1,99,30.35,0.2,NNW,4.6,-,N/A,Fog,Fog,340,2013-01-18 01:58:00
6:58 PM,32.5,32.4,99,30.35,0.2,NNW,4.6,-,N/A,Fog,Fog,340,2013-01-18 02:58:00
7:15 PM,32.0,32.0,100,30.32,0.2,NNW,3.5,-,N/A,Fog,Fog,340,2013-01-18 03:15:00
8:35 PM,32.0,32.0,100,30.31,0.2,NNW,2.3,-,N/A,Fog,Fog,340,2013-01-18 04:35:00
8:51 PM,32.0,32.0,100,30.31,0.2,NNW,3.5,-,N/A,Fog,Fog,340,2013-01-18 04:51:00
8:58 PM,30.6,30.4,99,30.33,0.2,NNW,3.5,-,N/A,Fog,Fog,340,2013-01-18 04:58:00
9:24 PM,30.2,30.2,100,30.31,0.2,Calm,Calm,-,N/A,Fog,Fog,0,2013-01-18 05:24:00
9:58 PM,30.2,30.2,100,30.33,0.2,NNW,1.2,-,N/A,Fog,Light Freezing Fog,340,2013-01-18 05:58:00
10:58 PM,28.9,28.8,99,30.32,0.2,NNW,2.3,-,N/A,Fog,Light Freezing Fog,340,2013-01-18 06:58:00
11:59 PM,28.9,28.8,99,30.32,0.2,NNW,3.5,-,N/A,Fog,Light Freezing Fog,340,2013-01-18 07:59:00